Flag for Russia Weather past 2 weeks in Murmansk, Russia

Now
25 °F

Snow flurries. Passing clouds.


Feels Like: 16 °F
Forecast: 20 / 28 °F
Wind: 8 mph from South

Location: Murmansk Airport

Current Time: Jan 26, 2015 at 9:29:46 PM

Latest Report: Jan 26, 2015 at 8:30 PM


Visibility: 3 mi

Pressure: 29.50 "Hg

Humidity: 93%

Dew point: 23 °F

Location of MurmanskLocation

Historic Weather in Murmansk — Graph

°F

Murmansk temperature yesterday

Maximum temperature yesterday: 18 °F (at 4:30 PM)
Minimum temperature yesterday: -22 °F (at 12:00 AM)
Average temperature yesterday: 8 °F

Past Weeks' High & Low Weather Summary

 TemperatureHumidityPressure
High27 °F (Jan 18, 9:00 AM)100% (Jan 18, 8:30 AM)30.45 "Hg (Jan 18, 8:30 AM)
Low-33 °F (Jan 11, 11:30 PM)56% (Jan 21, 12:00 AM)29.03 "Hg (Jan 16, 10:30 PM)
Average2 °F78%29.76 "Hg
* Reported Jan 11 8:00 PM — Jan 26 8:00 PM, Murmansk, Weather by CustomWeather, © 2014

Note: Actual official high and low records may vary slightly from our data, if they occured in-between our weather recording intervals... More about our weather records

Advertising

Murmansk weather history for previous 24 hours

 ConditionsComfort  
Time TempWeatherWind HumidityBarometerVisibility
8:00 PM
Jan 26
25 °FSnow flurries. Passing clouds.10 mph93%29.50 "Hg2 mi
7:30 PM25 °FSnow flurries. Passing clouds.10 mph86%29.53 "Hg2 mi
7:00 PM25 °FSnow flurries. Passing clouds.10 mph86%29.53 "Hg1 mi
6:30 PM23 °FSnow showers. Passing clouds.13 mph93%29.53 "Hg1 mi
6:00 PM21 °FSnow showers. Passing clouds.15 mph93%29.56 "Hg1 mi
5:30 PM19 °FSnow showers. Passing clouds.15 mph93%29.56 "Hg1 mi
5:00 PM19 °FSnow flurries. Passing clouds.10 mph86%29.59 "Hg1 mi
4:30 PM18 °FSnow flurries. Passing clouds.10 mph86%29.59 "Hg2 mi
4:00 PM16 °FSnow flurries. Partly sunny.8 mph86%29.62 "Hg6 mi
3:30 PM16 °FSunny.10 mph86%29.65 "Hg10 mi
3:00 PM16 °FSunny.10 mph93%29.65 "Hg10 mi
2:30 PM18 °FSunny.8 mph93%29.68 "Hg10 mi
2:00 PM14 °FSunny.3 mph92%29.68 "Hg10 mi
1:30 PM14 °FSunny.3 mph85%29.68 "Hg10 mi
1:00 PM12 °FSunny.1 mph85%29.68 "Hg10 mi
12:30 PM9 °FSunny.1 mph85%29.71 "Hg10 mi
12:00 PM7 °FSunny.3 mph85%29.71 "Hg10 mi
11:30 AM-2 °FClear.3 mph77%29.74 "Hg10 mi
11:00 AM0 °FClear.1 mph84%29.74 "Hg10 mi
10:30 AM-2 °FClear.No wind84%29.74 "Hg10 mi
10:00 AM-2 °FClear.No wind77%29.77 "Hg10 mi
9:30 AM-4 °FClear.No wind84%29.77 "Hg10 mi
9:00 AM-4 °FPassing clouds.No wind84%29.74 "HgN/A
8:30 AM-2 °FPassing clouds.1 mph77%29.77 "HgN/A
8:00 AM-2 °FPassing clouds.1 mph77%29.77 "HgN/A
7:30 AM0 °FPassing clouds.1 mph84%29.77 "HgN/A
7:00 AM0 °FPartly cloudy.No wind84%29.77 "HgN/A
6:00 AM1 °FPassing clouds.No wind85%29.77 "HgN/A
5:30 AM3 °FPassing clouds.No wind85%29.77 "HgN/A
5:00 AM3 °FPassing clouds.No wind78%29.77 "HgN/A
4:30 AM7 °FPassing clouds.No wind78%29.77 "HgN/A
4:00 AM7 °FPassing clouds.No wind85%29.77 "HgN/A
3:30 AM5 °FPassing clouds.No wind85%29.80 "HgN/A
3:00 AM5 °FPassing clouds.No wind85%29.80 "HgN/A
2:30 AM3 °FPassing clouds.No wind78%29.80 "HgN/A
2:00 AM3 °FPassing clouds.No wind78%29.80 "HgN/A
1:30 AM1 °FPassing clouds.1 mph85%29.80 "HgN/A
1:00 AM1 °FPassing clouds.1 mph78%29.80 "HgN/A
12:30 AM-2 °FPassing clouds.No wind84%29.80 "HgN/A
12:00 AM-2 °FPartly cloudy.No wind84%29.80 "HgN/A
11:30 PM
Jan 25
-4 °FClear.No wind84%29.80 "Hg10 mi
11:00 PM1 °FClear.No wind85%29.77 "Hg10 mi
10:30 PM3 °FClear.No wind78%29.77 "Hg10 mi
10:00 PM7 °FClear.1 mph85%29.77 "Hg10 mi
9:30 PM7 °FClear.1 mph85%29.77 "Hg10 mi
9:00 PM9 °FClear.1 mph85%29.77 "Hg10 mi
Weather by CustomWeather, © 2014

See weather overviewHow to use our weather pages